| time (UTC) | temp C | wind direction | speed KPH | gust KPH | rain 1hr cm | rain 24hr cm | rain mn cm | humidity % | barometer mb |
| 20260506100028 | 20 | 21 | 4.8 | 25.7 | 0.00 | 0.00 | 0.00 | 45 | 1008.2 |
| 20260506094517 | 20 | 26 | 4.8 | 20.9 | 0.00 | 0.00 | 0.00 | 45 | 1008.3 |
| 20260506093015 | 20 | 5 | 4.8 | 14.5 | 0.00 | 0.00 | 0.00 | 43 | 1008.3 |
| 20260506091512 | 21 | 66 | 4.8 | 17.7 | 0.00 | 0.00 | 0.00 | 41 | 1008.3 |
| 20260506090012 | 22 | 5 | 9.7 | 20.9 | 0.00 | 0.00 | 0.00 | 37 | 1008.1 |
| 20260506084510 | 21 | 347 | 4.8 | 17.7 | 0.00 | 0.00 | 0.00 | 40 | 1008.0 |
| 20260506083010 | 22 | 343 | 6.4 | 20.9 | 0.00 | 0.00 | 0.00 | 38 | 1008.0 |
| 20260506081506 | 22 | 45 | 1.6 | 17.7 | 0.00 | 0.00 | 0.00 | 39 | 1008.0 |
| 20260506073100 | 20 | 19 | 8.0 | 22.5 | 0.00 | 0.00 | 0.00 | 39 | 1007.8 |
| 20260506071559 | 20 | 355 | 4.8 | 16.1 | 0.00 | 0.00 | 0.00 | 40 | 1007.7 |
| 20260506070124 | 20 | 77 | 6.4 | 19.3 | 0.00 | 0.00 | 0.00 | 41 | 1007.7 |
| 20260506061548 | 19 | 355 | 4.8 | 14.5 | 0.00 | 0.00 | 0.00 | 44 | 1008.0 |
| 20260506044523 | 15 | 76 | 4.8 | 20.9 | 0.00 | 0.00 | 0.00 | 57 | 1007.8 |
| 20260506043019 | 14 | 59 | 0.0 | 8.0 | 0.00 | 0.00 | 0.00 | 59 | 1007.7 |
| 20260506041516 | 13 | 9 | 0.0 | 9.7 | 0.00 | 0.00 | 0.00 | 61 | 1007.6 |
| 20260506040016 | 13 | 24 | 0.0 | 8.0 | 0.00 | 0.00 | 0.00 | 60 | 1007.6 |
| 20260506034511 | 13 | 39 | 0.0 | 0.0 | 0.00 | 0.00 | 0.00 | 59 | 1007.6 |
| 20260506033014 | 13 | 43 | 0.0 | 4.8 | 0.00 | 0.00 | 0.00 | 58 | 1007.5 |
| 20260506031507 | 14 | 5 | 0.0 | 4.8 | 0.00 | 0.00 | 0.00 | 57 | 1007.4 |
| 20260506030006 | 14 | 355 | 0.0 | 6.4 | 0.00 | 0.00 | 0.00 | 56 | 1007.6 |
| 20260506024513 | 14 | 65 | 0.0 | 8.0 | 0.00 | 0.00 | 0.00 | 56 | 1007.6 |
| 20260506023003 | 15 | 92 | 4.8 | 14.5 | 0.00 | 0.00 | 0.00 | 55 | 1007.6 |
| 20260506021504 | 15 | 80 | 3.2 | 12.9 | 0.00 | 0.00 | 0.00 | 56 | 1007.6 |
| 20260506020001 | 15 | 70 | 0.0 | 9.7 | 0.00 | 0.00 | 0.00 | 55 | 1007.4 |
| 20260506014613 | 15 | 80 | 1.6 | 12.9 | 0.00 | 0.00 | 0.00 | 55 | 1007.3 |
| 20260506013059 | 15 | 69 | 1.6 | 16.1 | 0.00 | 0.00 | 0.00 | 55 | 1007.2 |
| 20260506011623 | 15 | 73 | 1.6 | 25.7 | 0.00 | 0.00 | 0.00 | 55 | 1007.1 |
| 20260506010056 | 15 | 76 | 3.2 | 19.3 | 0.00 | 0.00 | 0.00 | 55 | 1007.0 |
| 20260506004604 | 15 | 69 | 4.8 | 24.1 | 0.00 | 0.00 | 0.00 | 55 | 1007.2 |
| 20260506003055 | 15 | 25 | 6.4 | 19.3 | 0.00 | 0.00 | 0.00 | 55 | 1007.2 |
| 20260506001556 | 15 | 360 | 1.6 | 9.7 | 0.00 | 0.00 | 0.00 | 56 | 1007.1 |
| 20260506000117 | 15 | 12 | 3.2 | 14.5 | 0.00 | 0.00 | 0.00 | 55 | 1007.0 |
| 20260505234555 | 15 | 79 | 0.0 | 17.7 | 0.00 | 0.00 | 0.00 | 55 | 1007.1 |
| 20260505233057 | 15 | 5 | 0.0 | 12.9 | 0.00 | 0.00 | 0.00 | 56 | 1007.3 |
| 20260505231601 | 15 | 5 | 4.8 | 14.5 | 0.00 | 0.00 | 0.00 | 56 | 1007.2 |
| 20260505230104 | 15 | 73 | 0.0 | 12.9 | 0.00 | 0.00 | 0.00 | 56 | 1007.2 |
| 20260505224549 | 15 | 14 | 1.6 | 24.1 | 0.00 | 0.00 | 0.00 | 57 | 1007.1 |
| 20260505223048 | 15 | 64 | 3.2 | 14.5 | 0.00 | 0.00 | 0.00 | 57 | 1007.1 |
| 20260505221555 | 15 | 19 | 3.2 | 12.9 | 0.00 | 0.00 | 0.00 | 58 | 1007.2 |
| 20260505220044 | 15 | 360 | 1.6 | 16.1 | 0.00 | 0.00 | 0.00 | 57 | 1007.3 |
| 20260505214543 | 15 | 12 | 1.6 | 16.1 | 0.00 | 0.00 | 0.00 | 57 | 1007.3 |
| 20260505213042 | 15 | 34 | 9.7 | 22.5 | 0.00 | 0.00 | 0.00 | 58 | 1007.3 |
| 20260505211541 | 15 | 111 | 6.4 | 14.5 | 0.00 | 0.00 | 0.00 | 58 | 1007.6 |
| 20260505210040 | 15 | 63 | 4.8 | 20.9 | 0.00 | 0.00 | 0.00 | 57 | 1007.9 |
| 20260505204547 | 15 | 48 | 4.8 | 20.9 | 0.00 | 0.00 | 0.00 | 58 | 1007.7 |
| 20260505203052 | 15 | 117 | 6.4 | 20.9 | 0.00 | 0.00 | 0.00 | 57 | 1007.6 |
| 20260505201540 | 15 | 322 | 3.2 | 20.9 | 0.00 | 0.00 | 0.00 | 57 | 1007.8 |
| 20260505200038 | 15 | 305 | 1.6 | 8.0 | 0.00 | 0.00 | 0.00 | 56 | 1007.8 |
| 20260505194550 | 15 | 23 | 0.0 | 9.7 | 0.00 | 0.00 | 0.00 | 56 | 1007.7 |
| 20260505193038 | 15 | 5 | 1.6 | 19.3 | 0.00 | 0.00 | 0.00 | 55 | 1007.7 |
| 20260505191547 | 15 | 44 | 4.8 | 14.5 | 0.00 | 0.00 | 0.00 | 55 | 1007.7 |
| 20260505190039 | 15 | 5 | 4.8 | 20.9 | 0.00 | 0.00 | 0.00 | 54 | 1007.6 |
| 20260505184537 | 16 | 341 | 6.4 | 20.9 | 0.00 | 0.00 | 0.00 | 52 | 1007.5 |
| 20260505183034 | 16 | 338 | 3.2 | 19.3 | 0.00 | 0.00 | 0.00 | 52 | 1007.6 |
| 20260505181537 | 16 | 18 | 3.2 | 16.1 | 0.00 | 0.00 | 0.00 | 51 | 1007.6 |
| 20260505180043 | 16 | 355 | 3.2 | 16.1 | 0.00 | 0.00 | 0.00 | 51 | 1007.5 |
| 20260505174532 | 16 | 55 | 3.2 | 12.9 | 0.00 | 0.00 | 0.00 | 50 | 1007.7 |
| 20260505173029 | 16 | 67 | 4.8 | 17.7 | 0.00 | 0.00 | 0.00 | 48 | 1007.8 |
| 20260505171527 | 17 | 15 | 3.2 | 17.7 | 0.00 | 0.00 | 0.00 | 46 | 1008.0 |
| 20260505170026 | 17 | 360 | 6.4 | 16.1 | 0.00 | 0.00 | 0.00 | 44 | 1007.9 |
| 20260505164526 | 18 | 313 | 8.0 | 22.5 | 0.00 | 0.00 | 0.00 | 42 | 1007.9 |
| 20260505163025 | 18 | 70 | 4.8 | 19.3 | 0.00 | 0.00 | 0.00 | 43 | 1008.0 |
| 20260505161526 | 18 | 355 | 3.2 | 12.9 | 0.00 | 0.00 | 0.00 | 43 | 1008.2 |
| 20260505153022 | 18 | 15 | 4.8 | 22.5 | 0.00 | 0.00 | 0.00 | 42 | 1008.5 |
| 20260505151521 | 18 | 51 | 6.4 | 24.1 | 0.00 | 0.00 | 0.00 | 41 | 1008.4 |
| 20260505124517 | 20 | 67 | 3.2 | 24.1 | 0.00 | 0.00 | 0.00 | 37 | 1008.5 |
| 20260505123014 | 21 | 36 | 8.0 | 22.5 | 0.00 | 0.00 | 0.00 | 35 | 1008.7 |
| 20260505121525 | 21 | 39 | 14.5 | 24.1 | 0.00 | 0.00 | 0.00 | 34 | 1008.6 |
| 20260505120012 | 22 | 306 | 11.3 | 25.7 | 0.00 | 0.00 | 0.00 | 32 | 1008.5 |
| 20260505114512 | 22 | 5 | 14.5 | 29.0 | 0.00 | 0.00 | 0.00 | 29 | 1008.4 |
| 20260505113012 | 23 | 328 | 9.7 | 35.4 | 0.00 | 0.00 | 0.00 | 28 | 1008.3 |
| 20260505111510 | 24 | 339 | 9.7 | 27.4 | 0.00 | 0.00 | 0.00 | 25 | 1008.2 |
| 20260505101505 | 24 | 51 | 9.7 | 17.7 | 0.00 | 0.00 | 0.00 | 27 | 1008.1 |